Location: Unspecified
(0.0000°N, 0.0000°E)
Time: 11:16:31
(UTC+00:00)

A-11 Canister half - Pass Details

Date: 05 August 2021
Orbit: 1515 x 1685 km, 47.2° (Epoch: 27 September)

Event Time Altitude Azimuth Distance (km) Brightness Sun altitude
Rises 23:45:36 0° 330° (NNW) 4,925 11.9 -72.6°
Enters shadow 23:46:28 - 331° (NNW) 4,660 11.7 -72.6°
Reaches altitude 10° 23:48:53 10° 334° (NNW) 3,937 - -72.8°
Maximum altitude 23:58:44 56° 50° (NE) 1,925 - -73.2°
Drops below altitude 10° 00:08:22 10° 126° (SE) 3,866 - -73.3°
Sets 00:11:32 0° 130° (SE) 4,832 - -73.3°
